Temperature
17 17 17 17 17 17 17 17 16 16 16 17 17 17 16 17 17 17 16 16 16 16 16 16 16 16 16 15 15 15 15 15 15 15 15 15 15 15
17 17 17 17 17 17 17 16 16 16 16 16 16 16 16 16 16 16 16 16 16 16 16 16 16 16 16 15 15 15 15 15 15 15 15 15 14 14
17 17 17 16 16 16 16 16 16 16 16 16 16 16 16 16 16 16 16 16 16 16 16 16 16 16 15 15 15 15 15 15 15 15 14 14 14 14
16 16 17 16 16 16 16 16 16 16 16 16 16 16 16 16 16 16 16 16 16 16 16 15 16 15 15 15 15 15 15 15 15 14 14 14 14 14
16 16 16 16 16 16 16 16 16 16 16 15 15 16 16 15 15 15 15 15 15 15 15 15 15 15 15 15 15 15 15 15 15 14 14 14 14 14
16 16 16 16 16 16 16 16 15 15 15 15 15 15 15 15 15 15 15 15 15 15 15 15 15 15 15 15 15 15 15 15 14 14 14 14 14 14
16 16 16 15 15 15 15 15 15 15 15 15 15 15 15 15 15 15 15 15 15 15 15 15 15 15 15 15 15 15 15 15 14 14 14 14 14 14
15 15 15 15 15 15 15 15 15 15 14 14 14 14 14 14 14 14 14 14 14 14 14 14 14 15 15 15 15 14 14 14 14 14 14 14 14 14
15 15 15 15 15 15 15 14 14 14 14 14 14 14 14 14 14 14 14 14 14 14 14 14 14 14 14 14 14 14 14 14 14 14 14 13 13 13
14 14 14 14 14 14 14 14 14 14 14 14 14 14 14 13 13 13 13 13 13 13 13 13 14 14 14 14 14 14 14 14 14 13 13 13 13 13
14 14 14 14 14 14 14 14 14 14 13 13 13 13 13 13 13 13 13 13 13 13 13 13 13 13 13 13 13 13 13 13 13 13 13 13 13 13
13 13 13 13 13 13 13 13 13 13 13 13 13 13 13 13 13 13 12 12 12 12 13 12 13 12 12 13 13 13 13 13 13 13 13 12 12 12
13 13 13 13 13 13 13 13 13 13 12 12 12 12 12 12 12 12 12 12 12 12 12 12 12 12 12 12 12 12 12 12 12 12 12 12 12 12
13 13 12 12 12 12 12 12 12 12 12 12 12 12 12 12 12 12 12 12 12 12 12 12 12 12 12 12 12 12 12 12 12 12 12 12 11 11
12 12 12 12 12 12 12 12 12 11 11 11 11 11 11 11 11 11 11 11 11 11 11 11 11 11 11 11 11 11 11 11 11 11 11 11 11 11
12 12 12 12 11 11 11 11 11 11 11 11 11 11 11 11 11 11 11 11 11 11 11 11 11 11 11 11 11 11 11 11 11 11 11 11 11 11
12 11 11 11 11 11 11 11 11 10 11 11 11 11 10 10 10 10 10 10 10 10 11 11 10 10 10 10 10 10 10 10 10 10 10 10 10 10
11 11 11 11 10 10 10 10 10 10 10 10 10 10 10 10 10 10 10 10 10 10 10 10 10 10 10 10 10 10 10 10 10 9 9 9 9 9
11 11 10 10 10 10 10 10 10 10 10 10 9 9 9 9 9 9 9 9 9 9 9 9 9 9 9 9 9 9 9 9 9 9 9 9 9 9
10 10 10 9 9 9 9 9 9 9 9 9 9 9 9 9 9 9 9 9 9 9 9 9 8 8 8 8 8 8 9 8 8 8 8 8 8 8
9 9 9 9 9 8 9 8 8 8 8 8 8 8 8 8 8 8 8 8 8 8 8 8 8 8 8 8 8 8 8 8 8 8 8 8 8 8
9 9 9 8 8 8 8 8 8 8 8 8 8 8 8 8 8 8 8 8 7 7 7 7 7 7 7 7 7 7 7 8 8 7 7 7 7 7
9 9 8 8 8 8 8 8 7 7 7 7 7 7 7 7 7 7 7 7 7 7 7 7 7 7 7 7 6 7 7 7 7 7 7 7 7 7
Wind_Speed
2 2 2 2 1 2 2 3 3 2 4 4 3 3 4 6 8 8 8 10 12 13 14 14 14 14 14 14 14 13 13 13 12 12 11 11 11 11
2 1 2 2 2 2 2 2 2 3 4 4 4 3 3 4 7 8 8 10 11 11 13 14 15 15 15 15 14 14 14 13 13 13 12 12 12 12
2 1 2 2 1 1 1 2 2 2 4 5 3 3 3 3 3 5 7 7 8 11 12 13 14 15 15 16 16 15 15 15 14 14 13 13 13 12
2 2 3 2 1 2 1 2 3 3 3 4 4 2 2 3 3 4 4 6 7 11 12 13 13 14 16 17 17 16 16 16 15 15 14 14 14 13
2 3 3 2 2 2 2 2 3 3 2 2 3 2 2 2 1 3 3 3 6 9 12 13 14 14 14 15 15 16 16 16 16 15 15 14 14 13
2 3 3 3 3 3 3 3 3 2 1 1 2 2 2 2 1 2 3 3 4 5 6 8 10 12 13 13 14 14 14 15 16 15 15 14 14 14
2 3 3 3 3 3 3 2 2 2 1 1 2 2 2 1 2 2 3 3 4 3 3 3 4 5 7 11 13 13 14 15 15 15 15 15 15 14
2 3 3 2 2 2 3 3 3 3 3 3 3 3 4 3 2 2 2 2 4 2 2 4 3 4 5 7 10 12 14 15 15 15 15 15 15 15
2 2 2 2 2 3 3 3 3 4 4 4 4 4 4 4 3 2 2 3 5 3 1 4 2 3 4 6 9 11 13 13 14 14 14 14 14 14
2 2 2 2 2 2 2 3 3 4 4 3 4 5 4 4 4 4 4 3 3 3 2 3 3 3 3 4 8 10 12 12 12 12 11 12 12 13
3 2 1 2 3 2 1 2 3 4 4 2 2 3 3 3 3 1 1 1 4 4 2 2 3 2 2 3 4 6 9 10 11 12 11 11 11 11
2 2 1 2 3 2 2 2 3 4 3 3 3 4 4 4 3 3 3 3 3 3 3 2 2 1 2 3 2 3 4 7 9 11 11 11 10 7
2 2 3 3 4 3 2 2 5 3 2 2 3 3 3 3 3 3 4 4 4 4 3 2 2 2 3 3 3 3 3 3 4 6 9 10 11 9
2 2 2 3 3 3 2 3 4 2 1 1 2 3 3 4 4 4 5 5 6 7 5 4 3 3 3 3 3 3 2 3 3 3 4 6 8 11
2 3 3 3 3 3 3 3 2 1 1 1 3 4 4 4 4 3 4 4 5 6 6 4 4 3 3 4 4 3 3 3 3 3 3 4 4 4
2 2 3 3 2 3 3 3 1 1 1 2 3 3 4 4 3 3 3 2 3 4 4 4 4 4 3 4 4 4 3 3 2 3 3 3 3 4
1 2 2 3 3 3 3 2 2 2 2 2 2 3 4 4 4 3 2 2 2 4 4 3 4 3 4 4 3 4 3 3 3 3 2 3 3 4
3 1 1 1 1 2 2 3 2 2 2 2 2 3 3 4 4 4 2 2 3 4 4 3 2 2 2 3 5 4 3 4 3 3 3 3 4 4
3 1 1 1 2 2 2 2 2 2 2 2 3 3 4 4 4 4 4 3 4 4 4 3 2 2 3 5 5 4 4 4 3 3 3 3 4 5
1 1 0 1 1 2 2 2 2 3 2 2 2 3 3 3 4 4 4 3 4 4 4 3 3 3 4 5 4 4 5 4 3 3 3 3 3 3
0 0 0 1 1 2 2 2 2 2 2 2 2 3 3 3 4 4 4 5 4 4 4 5 6 7 4 2 2 3 3 5 5 4 3 2 2 2
0 0 1 1 1 1 1 2 2 2 2 2 3 3 3 3 4 5 4 4 4 4 5 5 5 4 1 2 4 4 4 3 3 3 3 4 3 3
2 2 1 1 1 1 1 2 2 2 2 2 3 4 4 4 4 4 4 4 4 4 4 4 4 3 2 2 2 3 3 3 2 2 3 4 4 5
Wind_Direction
226 221 236 252 226 211 198 183 188 242 268 260 259 252 233 227 223 215 218 227 228 225 225 226 225 224 224 224 222 220 221 218 219 222 225 228 235 237
227 227 251 243 243 232 210 216 198 207 250 257 246 256 246 240 230 221 224 231 231 230 228 228 227 226 224 223 221 217 216 217 218 220 223 228 234 233
268 246 261 256 257 256 229 236 234 211 246 273 264 265 231 242 236 231 233 228 235 234 232 230 229 229 226 224 220 218 218 219 220 222 224 228 230 232
259 255 264 265 270 268 256 251 245 227 221 264 283 279 243 233 228 235 242 240 238 242 238 234 232 231 229 225 222 221 221 222 222 224 226 228 229 232
244 242 257 259 266 264 262 262 264 263 231 243 272 276 265 250 252 260 263 264 253 252 244 239 236 234 232 229 225 224 226 227 227 227 227 228 231 234
257 247 246 241 242 243 251 253 256 263 262 257 271 289 286 277 219 252 277 266 262 263 255 247 240 235 233 231 227 227 228 228 229 229 228 229 231 233
288 275 259 254 248 240 245 252 247 249 254 257 270 296 295 303 259 244 256 273 269 253 255 255 237 237 237 236 234 232 231 231 229 227 228 230 232 233
282 297 290 289 295 266 247 245 222 230 240 243 252 257 262 256 257 251 251 278 282 262 228 263 233 237 242 236 235 231 231 232 230 228 228 230 233 234
264 281 297 301 299 286 288 288 275 253 236 229 240 250 250 243 233 252 246 246 257 260 232 266 254 253 256 249 237 232 230 229 228 229 228 230 231 231
258 241 249 282 301 285 279 290 289 289 273 246 237 251 253 241 222 224 234 258 282 286 219 250 270 264 273 264 243 235 233 232 232 229 227 229 229 229
283 267 235 259 296 302 275 281 295 303 308 288 267 278 284 274 245 215 259 268 287 286 250 222 259 275 277 266 264 242 237 237 232 231 230 229 228 227
295 290 282 277 287 289 240 248 271 284 309 327 318 311 304 305 288 227 218 229 257 273 257 217 248 239 282 279 272 270 254 248 239 234 231 229 225 217
296 304 307 318 311 294 246 238 254 263 287 294 300 301 303 297 284 256 231 213 225 247 245 205 228 225 221 266 286 266 258 259 242 235 231 231 224 210
268 281 296 315 315 317 296 282 288 302 313 318 316 312 299 291 283 269 256 244 236 240 248 216 218 223 228 251 266 270 262 256 232 231 237 235 231 227
268 290 311 320 320 322 332 335 341 354 330 316 305 297 290 282 286 285 279 272 275 269 267 245 229 226 219 235 249 252 261 255 230 230 233 226 225 220
328 328 341 345 351 350 354 355 3 320 265 270 288 293 305 310 299 282 275 283 289 292 293 283 252 227 232 241 238 253 250 242 245 236 235 241 235 223
351 32 31 23 12 360 350 338 340 353 336 313 304 306 307 308 298 288 271 273 268 274 289 291 284 267 242 232 241 250 251 251 244 231 226 245 247 241
106 65 358 348 340 335 330 330 336 332 321 319 316 309 308 308 305 306 297 281 276 273 272 272 286 313 316 287 235 235 250 253 249 231 214 226 252 256
95 78 5 340 333 330 323 325 328 317 323 329 319 316 316 317 316 315 315 309 295 284 280 277 268 257 277 287 280 233 232 254 248 235 224 220 239 251
87 116 254 306 320 312 314 324 322 327 331 326 321 324 326 323 321 318 314 309 302 300 299 296 285 267 250 256 262 262 242 230 231 236 241 242 255 263
92 30 305 301 317 309 306 312 313 313 320 325 326 321 323 328 322 315 313 314 312 308 304 302 293 291 275 265 274 279 272 260 235 223 221 228 266 281
179 225 268 277 291 312 325 331 331 328 334 332 327 326 325 326 316 313 314 315 315 306 298 298 306 318 312 266 270 275 284 297 301 303 268 229 209 220
217 232 244 266 291 308 330 2 356 344 347 345 339 336 337 332 321 318 321 320 318 316 315 318 327 329 313 288 282 282 281 286 293 305 305 306 263 247
Height
1529 1529 1529 1529 1529 1529 1529 1529 1529 1527 1526 1526 1526 1526 1526 1526 1526 1526 1526 1526 1526 1526 1526 1527 1527 1527 1528 1528 1529 1529 1530 1530 1531 1532 1532 1533 1534 1534
1528 1528 1527 1527 1527 1527 1527 1527 1527 1526 1524 1523 1523 1523 1523 1523 1523 1523 1523 1523 1523 1523 1523 1523 1523 1523 1524 1524 1525 1525 1526 1527 1527 1528 1528 1529 1530 1530
1525 1525 1525 1525 1524 1524 1524 1524 1524 1524 1522 1520 1519 1519 1519 1519 1519 1520 1520 1519 1519 1519 1520 1520 1520 1520 1520 1521 1521 1522 1522 1523 1523 1524 1524 1525 1525 1526
1522 1522 1522 1522 1522 1522 1521 1521 1520 1520 1519 1517 1516 1515 1515 1515 1516 1516 1516 1516 1516 1516 1515 1516 1516 1516 1516 1516 1517 1518 1518 1519 1519 1520 1521 1521 1522 1522
1520 1519 1519 1519 1519 1519 1518 1518 1517 1517 1516 1514 1513 1512 1512 1512 1512 1512 1512 1512 1512 1512 1512 1512 1512 1512 1512 1512 1513 1513 1514 1515 1515 1516 1516 1517 1517 1518
1517 1517 1516 1516 1516 1516 1515 1515 1514 1513 1512 1511 1510 1509 1508 1509 1509 1508 1508 1508 1508 1508 1508 1508 1508 1507 1508 1508 1508 1509 1510 1510 1511 1511 1512 1512 1513 1514
1514 1514 1513 1513 1513 1513 1512 1511 1511 1510 1509 1508 1507 1506 1505 1505 1505 1504 1504 1504 1504 1504 1504 1503 1503 1503 1503 1503 1504 1504 1505 1505 1506 1506 1507 1507 1508 1509
1510 1510 1510 1510 1510 1510 1509 1508 1508 1507 1505 1505 1504 1503 1502 1502 1502 1501 1501 1500 1499 1500 1500 1499 1499 1498 1498 1499 1499 1499 1500 1500 1501 1501 1502 1503 1503 1504
1507 1507 1507 1506 1506 1506 1505 1505 1504 1504 1503 1502 1501 1500 1500 1499 1499 1498 1498 1497 1496 1496 1496 1494 1494 1494 1494 1494 1494 1494 1495 1495 1495 1496 1496 1497 1498 1499
1504 1504 1503 1503 1503 1502 1502 1501 1500 1500 1499 1498 1498 1497 1497 1496 1496 1495 1495 1494 1493 1493 1492 1491 1490 1489 1490 1489 1489 1490 1490 1490 1490 1491 1491 1492 1493 1493
1502 1501 1501 1500 1499 1499 1498 1497 1497 1496 1495 1495 1494 1493 1493 1492 1492 1492 1491 1490 1488 1488 1488 1487 1485 1485 1485 1485 1485 1485 1486 1486 1486 1486 1486 1487 1487 1488
1499 1498 1498 1497 1496 1496 1495 1494 1493 1492 1492 1491 1490 1490 1489 1488 1488 1487 1487 1486 1485 1483 1483 1483 1482 1482 1481 1481 1481 1481 1481 1481 1481 1481 1481 1481 1482 1482
1496 1496 1495 1495 1493 1493 1492 1491 1490 1490 1488 1487 1486 1486 1485 1484 1483 1483 1483 1482 1481 1480 1480 1480 1479 1478 1478 1476 1476 1476 1476 1475 1475 1475 1476 1476 1476 1477
1495 1494 1493 1492 1491 1490 1489 1488 1488 1487 1485 1484 1483 1482 1481 1480 1480 1479 1479 1478 1477 1476 1476 1476 1475 1474 1473 1472 1471 1471 1471 1470 1470 1469 1469 1470 1470 1471
1493 1492 1491 1490 1489 1488 1487 1486 1484 1483 1482 1480 1479 1479 1478 1476 1476 1475 1474 1473 1472 1472 1471 1471 1470 1469 1469 1468 1466 1466 1465 1465 1465 1464 1464 1464 1464 1465
1491 1490 1489 1488 1487 1486 1485 1484 1482 1481 1479 1478 1477 1476 1475 1474 1472 1471 1470 1469 1468 1467 1466 1466 1465 1465 1463 1462 1462 1460 1460 1459 1459 1459 1459 1459 1459 1459
1488 1487 1486 1485 1484 1483 1482 1481 1480 1479 1477 1476 1475 1474 1472 1471 1469 1468 1466 1465 1464 1462 1461 1461 1460 1459 1458 1458 1456 1455 1455 1454 1454 1453 1453 1452 1453 1454
1486 1484 1483 1482 1481 1481 1480 1479 1478 1477 1476 1474 1473 1471 1469 1467 1466 1464 1462 1461 1460 1459 1458 1457 1456 1454 1454 1453 1453 1451 1450 1449 1448 1448 1448 1447 1447 1448
1482 1481 1481 1480 1479 1479 1478 1477 1476 1475 1474 1472 1470 1468 1466 1465 1463 1461 1459 1458 1456 1455 1453 1453 1451 1450 1448 1446 1446 1447 1446 1444 1444 1443 1443 1442 1442 1442
1480 1479 1479 1478 1477 1476 1475 1474 1473 1472 1471 1469 1467 1466 1464 1462 1460 1458 1456 1454 1453 1451 1449 1448 1447 1445 1444 1442 1441 1441 1442 1440 1439 1438 1438 1438 1438 1438
1478 1477 1477 1476 1476 1475 1473 1471 1470 1469 1468 1467 1465 1463 1461 1459 1456 1454 1452 1450 1449 1447 1445 1443 1442 1441 1439 1438 1437 1436 1436 1436 1435 1434 1433 1433 1433 1433
1477 1476 1475 1475 1474 1473 1471 1470 1468 1467 1465 1464 1462 1460 1457 1455 1453 1451 1449 1447 1445 1443 1442 1440 1438 1437 1435 1434 1432 1431 1431 1431 1431 1430 1430 1430 1428 1428
1476 1475 1474 1473 1472 1470 1469 1467 1466 1465 1463 1461 1459 1457 1455 1452 1450 1448 1446 1444 1442 1440 1438 1436 1435 1433 1432 1431 1429 1428 1427 1427 1426 1425 1425 1426 1426 1425